Wind_Speed
55 55 55 56 53 54 55 54 54 54 54 55 56 58 57 55 55 59 62 64 65 64 65 64 61 56 52 51 53 51 53 56 58 63 66 62 67 69 69 70 71 64 59 60 60 61 68 70 72
54 55 53 48 45 44 42 43 46 48 51 51 49 47 48 52 55 59 61 64 64 63 60 60 57 52 50 50 47 42 41 37 45 56 61 59 63 67 69 65 58 47 47 47 51 57 65 67 73
49 43 43 39 38 40 38 39 42 43 44 44 43 43 47 49 53 56 60 62 62 57 54 51 52 46 50 49 47 40 34 15 47 40 54 57 60 67 61 56 44 41 39 44 50 53 58 67 71
40 37 37 37 36 33 32 35 36 37 39 40 40 43 45 48 54 55 62 62 62 55 50 51 55 52 47 46 47 44 42 25 34 49 46 51 55 65 59 54 42 39 40 43 48 51 48 57 56
37 38 39 39 35 34 35 37 35 36 38 38 40 43 45 51 54 56 61 60 61 54 47 39 46 47 46 46 44 50 43 47 51 49 33 40 40 49 52 43 41 36 39 38 39 42 42 43 44
39 40 40 36 38 32 33 39 41 41 40 41 41 43 47 51 55 60 58 51 50 45 36 36 46 38 34 41 44 50 64 58 48 34 20 27 29 34 37 38 34 25 16 17 16 20 21 23 32
41 42 42 41 41 33 35 38 42 42 40 38 37 42 47 48 52 49 48 40 30 29 25 28 39 37 35 41 50 51 60 67 50 36 25 24 26 35 39 29 22 21 15 18 17 17 14 13 13
42 45 44 43 45 44 44 40 39 39 39 39 39 41 43 46 44 36 34 27 11 15 17 21 35 37 39 49 54 55 66 62 48 41 33 32 35 31 38 27 20 20 16 19 21 21 15 19 19
42 47 47 46 45 48 45 42 42 37 40 44 40 38 42 43 42 21 22 16 9 13 18 22 33 38 52 56 56 54 51 55 45 44 45 40 33 35 27 16 14 20 15 22 23 23 20 20 23
43 48 45 46 45 47 46 43 41 36 42 40 36 37 42 42 40 19 14 12 8 14 23 22 35 42 55 59 58 60 52 46 42 48 51 42 40 40 31 19 18 21 20 25 26 20 20 24 29
44 46 43 45 43 48 46 42 37 33 37 37 34 35 41 40 37 25 16 13 11 13 26 26 33 42 44 47 58 52 48 40 42 50 48 44 40 39 23 25 27 25 25 31 26 26 33 26 29
46 48 45 42 44 44 42 42 35 35 36 37 34 34 38 38 33 25 12 9 15 11 22 26 29 38 43 45 56 50 47 44 44 53 51 47 46 44 34 28 28 32 36 38 32 31 31 39 29
48 49 46 41 43 37 38 37 39 37 34 35 33 34 39 38 33 21 20 14 11 12 16 27 29 34 45 51 52 54 53 53 54 55 53 51 51 47 31 34 36 43 44 41 43 45 42 41 41
47 45 44 41 41 33 35 37 35 34 31 31 32 32 37 38 35 20 18 18 14 15 18 18 31 36 39 49 53 52 52 52 47 50 49 42 52 38 35 34 42 44 46 47 47 46 45 46 49
45 41 42 42 38 30 34 33 33 32 26 30 30 32 36 38 35 20 18 20 20 18 16 24 30 30 34 43 54 46 51 54 49 50 40 41 41 42 43 45 41 45 51 47 49 50 46 38 41
44 39 42 39 33 27 34 36 30 30 27 30 30 33 37 36 32 21 14 15 24 22 17 14 22 28 34 42 50 52 53 55 50 38 43 44 46 47 48 45 50 52 54 55 55 54 58 55 55
41 40 40 39 27 29 29 39 26 29 29 33 31 33 36 34 30 20 16 18 21 23 26 21 15 20 32 36 42 50 51 54 46 41 41 45 47 53 49 49 50 52 55 54 56 57 55 58 60
42 41 39 40 26 22 26 36 31 30 30 33 32 32 36 35 30 20 17 20 19 25 26 23 22 19 31 31 41 54 51 53 52 46 42 46 46 48 53 50 47 54 59 60 56 59 64 66 60
42 35 37 40 30 27 31 35 33 29 31 33 33 31 36 34 32 21 21 21 18 19 22 21 23 24 27 38 40 48 53 47 53 50 48 49 48 51 53 56 62 58 56 56 58 61 60 56 59
39 35 41 45 36 28 34 36 33 29 30 33 32 30 34 35 35 23 20 14 13 16 22 26 28 24 32 38 44 50 56 55 49 52 52 52 55 52 55 56 54 56 60 60 61 58 59 57 61
45 39 47 39 33 36 33 35 34 29 30 30 27 30 33 36 35 25 21 15 16 18 20 20 22 27 32 40 43 50 52 51 51 53 54 54 52 54 53 53 53 53 59 64 65 59 54 63 63
46 52 44 37 34 35 31 33 34 30 29 29 25 27 32 34 34 25 18 15 18 14 16 20 25 31 33 40 39 40 46 51 52 53 54 52 52 48 50 48 54 61 61 57 56 60 63 55 51
53 47 45 38 36 33 35 26 35 27 29 29 25 25 27 32 31 23 15 13 15 12 15 20 28 31 33 35 39 40 41 49 49 46 45 49 53 57 55 57 51 54 54 50 46 48 52 57 54
53 51 45 41 43 35 40 23 39 28 31 30 25 23 24 28 32 26 14 11 13 11 13 17 28 29 29 33 32 33 35 36 39 43 47 45 41 44 53 57 48 50 47 41 45 51 53 50 51
55 56 52 49 47 36 36 22 34 26 30 29 25 21 23 24 29 27 21 11 9 6 15 19 20 25 25 26 28 29 27 28 28 30 32 32 35 34 36 38 37 39 43 48 49 48 51 52 54
64 62 56 52 50 42 34 30 44 31 32 29 25 21 22 19 26 28 23 17 9 6 5 21 23 27 31 31 30 28 30 31 31 32 34 38 36 37 39 41 42 45 45 49 50 52 52 53 48
64 60 63 54 49 43 38 31 42 38 31 33 29 25 21 17 20 24 26 16 15 12 11 12 13 20 31 35 34 34 36 36 38 40 38 39 40 41 41 40 45 44 47 48 49 47 47 47 51
68 67 66 57 50 48 42 40 42 43 38 37 34 28 23 21 18 19 21 20 11 11 14 15 15 13 16 22 29 34 39 42 43 44 43 44 41 40 43 45 49 49 53 49 50 48 50 49 52
72 69 66 61 54 52 48 45 45 48 39 39 37 31 27 24 21 12 20 20 13 8 7 11 17 20 19 18 22 25 29 34 39 43 45 47 45 46 46 45 48 48 48 44 47 48 50 53 51
68 66 67 63 61 58 54 51 52 51 44 39 39 36 33 27 26 16 13 18 16 11 10 9 9 13 18 24 25 26 28 30 33 37 41 42 42 41 42 42 44 45 42 43 47 49 48 50 54
Wind_Direction
296 296 293 294 293 292 290 289 287 285 284 284 282 282 285 285 282 281 280 279 276 274 274 271 271 267 263 259 252 245 246 248 242 241 248 250 251 250 250 250 251 255 258 257 258 256 258 256 256
298 298 297 298 300 297 297 296 290 289 287 287 287 285 285 285 284 282 283 282 280 278 280 279 274 266 258 246 248 242 243 255 259 253 247 243 250 250 248 249 253 256 251 249 258 252 255 254 256
300 298 299 295 295 293 295 298 293 292 291 291 288 289 290 290 288 286 283 281 278 278 279 272 268 260 245 241 240 230 215 214 262 265 246 241 242 252 252 252 254 259 251 256 253 253 250 255 259
297 295 296 299 298 295 295 298 302 302 298 295 297 297 294 291 292 293 289 287 283 283 276 271 264 257 244 242 238 218 191 215 238 258 247 234 235 240 251 251 254 250 246 255 258 261 267 263 260
296 295 298 300 298 308 304 306 304 304 302 302 303 298 297 297 299 295 288 285 285 282 274 259 254 249 241 236 227 215 181 175 220 246 238 231 226 230 235 237 240 240 247 252 255 256 256 253 256
296 298 300 300 304 308 309 309 308 310 308 308 300 299 301 301 298 301 293 289 285 279 268 245 241 251 238 225 218 216 190 193 197 209 225 217 223 225 217 209 222 220 227 236 252 254 246 244 249
297 296 300 301 305 311 313 308 305 309 316 310 305 304 305 301 310 303 297 291 275 269 256 230 228 229 215 207 205 210 203 205 214 196 200 203 206 202 197 198 205 218 235 246 255 246 239 245 253
295 293 298 300 303 310 313 309 305 304 310 317 311 306 306 305 318 299 293 293 246 244 236 222 212 207 195 195 198 202 206 207 199 186 185 181 197 200 201 200 220 239 246 249 254 230 240 270 278
293 286 293 294 300 306 309 309 308 304 307 313 310 310 309 315 322 317 301 277 217 218 226 210 213 203 188 189 193 202 201 204 198 182 180 181 188 207 193 206 258 250 280 240 244 239 252 266 283
290 290 290 293 298 301 306 305 307 301 304 312 311 313 319 321 324 338 320 239 242 220 226 216 209 206 191 193 198 203 207 192 198 195 182 186 206 198 209 223 239 256 256 250 252 235 253 266 280
285 291 292 291 294 299 301 304 305 303 305 316 315 315 322 325 328 318 338 226 216 245 222 221 216 208 203 204 203 206 198 203 201 193 196 194 199 212 223 227 251 263 261 257 229 247 265 273 279
281 288 292 292 293 298 296 301 297 301 311 315 314 316 325 326 330 316 338 234 216 246 225 226 238 214 211 210 202 199 203 216 206 194 194 202 211 216 219 223 243 241 257 247 249 265 272 275 272
281 289 285 288 296 297 295 295 299 297 307 312 312 320 326 327 331 303 296 323 232 243 254 224 228 236 216 215 214 214 218 218 215 207 206 209 215 216 222 230 239 245 248 240 255 263 267 269 270
278 283 285 288 299 298 297 297 292 293 307 314 309 320 325 323 329 294 275 283 290 255 243 252 226 238 234 221 217 213 222 203 197 204 205 220 221 223 230 229 233 234 238 252 250 262 273 274 275
275 276 283 290 293 294 298 306 303 296 313 311 308 314 320 320 326 300 255 254 267 277 272 245 227 230 247 232 218 218 217 205 205 204 215 220 224 219 220 229 233 239 244 250 259 262 272 276 279
266 272 289 287 282 292 293 299 298 299 315 308 307 314 320 320 325 299 261 248 257 262 267 264 242 234 234 242 228 217 218 211 211 212 220 221 225 227 228 234 235 243 248 252 261 266 269 273 278
260 274 287 281 281 293 288 292 293 300 313 308 305 312 319 319 324 306 275 261 244 248 251 250 250 244 230 231 235 222 215 213 220 219 230 230 232 227 231 235 243 246 250 255 266 270 273 276 277
273 284 278 276 285 284 286 291 293 295 305 308 304 315 319 323 329 317 298 276 264 247 244 251 245 236 231 227 230 225 220 216 222 231 234 237 237 238 240 241 247 254 258 261 271 273 273 274 279
271 276 272 272 282 281 289 283 290 290 301 307 304 317 318 329 334 315 304 282 275 248 236 241 235 230 223 218 216 226 221 221 225 230 233 236 240 238 244 243 248 253 259 265 268 274 274 276 278
269 268 268 274 277 281 289 283 282 289 295 302 305 316 322 338 338 321 319 304 288 248 239 234 227 237 221 219 218 218 221 221 222 227 234 237 243 244 249 252 255 257 260 265 268 269 274 279 279
265 263 266 274 280 281 284 277 276 283 292 297 306 317 331 339 338 324 329 319 290 267 242 224 225 229 218 213 211 221 219 222 227 230 234 239 243 247 253 255 257 260 262 264 264 271 274 278 280
259 260 269 271 275 277 285 278 278 285 289 294 306 318 331 339 334 323 324 307 289 258 229 219 217 219 215 214 203 213 225 229 231 236 241 246 246 246 249 251 251 253 261 267 267 270 277 278 278
258 263 264 267 264 288 271 267 281 282 284 289 296 313 331 342 336 320 316 316 298 234 223 212 209 203 205 210 213 216 222 228 231 233 234 242 246 250 253 255 261 262 266 275 278 274 274 277 278
255 255 258 262 266 287 262 269 277 280 285 285 290 306 325 332 342 332 295 312 316 242 221 212 203 202 206 201 203 215 223 229 234 241 246 250 250 255 256 259 268 269 271 265 266 275 277 276 278
253 254 258 265 267 265 263 270 277 275 285 278 284 297 314 334 339 342 315 282 304 283 226 215 204 208 208 217 213 216 227 237 239 233 242 249 257 255 257 255 257 257 258 261 266 272 277 283 282
251 255 260 266 263 259 261 263 270 273 279 278 274 284 300 319 328 342 337 299 263 252 255 228 222 220 217 219 227 227 228 227 232 239 238 238 240 243 244 249 255 258 259 262 271 279 280 278 279
253 258 257 259 260 259 261 254 267 266 272 278 266 271 287 300 315 327 338 329 285 254 242 235 215 227 226 222 217 217 223 229 230 231 234 239 242 242 245 250 255 259 265 269 273 276 276 279 285
256 254 259 260 258 256 250 247 261 267 271 267 262 262 271 281 293 312 327 336 312 271 259 256 239 228 232 231 231 230 227 226 228 230 234 236 240 247 254 257 262 267 271 275 276 274 276 278 280
246 248 254 253 251 251 249 250 256 265 272 264 256 255 260 272 279 287 309 320 325 329 297 264 250 244 244 241 238 239 238 239 240 241 243 246 249 251 254 255 262 267 274 276 279 280 280 279 287
248 248 251 253 258 255 252 259 262 267 268 263 254 250 255 257 267 262 278 301 316 336 329 337 305 270 257 249 246 243 240 243 245 249 250 249 250 249 249 251 255 264 269 276 279 281 284 288 298
Height
10769 10767 10765 10763 10762 10759 10756 10753 10750 10747 10745 10743 10740 10738 10735 10731 10729 10727 10724 10723 10721 10721 10721 10721 10725 10730 10733 10735 10736 10742 10747 10751 10754 10760 10762 10765 10769 10775 10778 10784 10789 10800 10805 10806 10808 10808 10807 10810 10810
10760 10757 10756 10755 10751 10749 10746 10742 10739 10737 10734 10732 10731 10728 10724 10719 10716 10713 10712 10708 10706 10705 10706 10706 10707 10713 10718 10720 10725 10735 10740 10746 10748 10750 10754 10757 10758 10762 10767 10774 10785 10790 10792 10794 10794 10794 10796 10798 10798
10751 10749 10748 10746 10744 10741 10737 10734 10731 10730 10727 10724 10721 10719 10713 10709 10704 10700 10695 10692 10689 10694 10697 10694 10686 10695 10698 10706 10714 10722 10729 10739 10733 10737 10740 10748 10752 10750 10759 10767 10774 10780 10785 10785 10784 10783 10786 10789 10794
10743 10742 10742 10738 10737 10733 10729 10726 10723 10722 10720 10716 10714 10710 10704 10699 10694 10690 10678 10674 10673 10679 10682 10680 10671 10677 10688 10693 10700 10708 10726 10732 10728 10725 10728 10734 10743 10746 10750 10759 10766 10772 10776 10777 10778 10779 10782 10784 10786
10737 10736 10734 10732 10729 10727 10723 10719 10716 10715 10711 10710 10707 10699 10695 10688 10683 10678 10667 10662 10657 10660 10665 10664 10654 10662 10677 10682 10690 10699 10720 10713 10718 10721 10721 10727 10733 10739 10747 10753 10759 10766 10770 10770 10771 10772 10773 10774 10778
10731 10729 10727 10726 10722 10721 10717 10712 10708 10705 10703 10702 10696 10690 10686 10681 10671 10661 10653 10653 10647 10643 10651 10652 10646 10656 10668 10677 10682 10687 10706 10699 10706 10713 10717 10723 10729 10733 10740 10748 10754 10760 10762 10765 10765 10764 10763 10767 10770
10725 10722 10720 10718 10714 10714 10710 10706 10702 10698 10697 10692 10687 10682 10676 10670 10663 10648 10642 10641 10638 10636 10636 10641 10642 10650 10659 10667 10675 10683 10692 10700 10704 10709 10715 10721 10726 10730 10735 10741 10747 10751 10755 10758 10759 10759 10760 10763 10764
10718 10715 10713 10712 10707 10706 10702 10698 10694 10692 10690 10686 10681 10674 10669 10662 10655 10641 10635 10632 10631 10631 10632 10634 10639 10642 10649 10660 10669 10676 10685 10695 10698 10702 10710 10718 10724 10727 10730 10735 10740 10744 10748 10752 10753 10754 10756 10758 10758
10710 10707 10706 10704 10702 10698 10695 10691 10687 10685 10682 10679 10674 10667 10661 10653 10644 10634 10627 10625 10626 10629 10631 10633 10635 10640 10644 10653 10660 10665 10676 10689 10693 10699 10706 10714 10720 10724 10726 10727 10733 10739 10742 10745 10747 10749 10751 10753 10753
10702 10697 10700 10697 10696 10690 10687 10684 10680 10677 10675 10672 10666 10659 10652 10644 10636 10629 10623 10622 10622 10627 10629 10631 10633 10638 10643 10650 10653 10660 10672 10683 10688 10694 10702 10711 10716 10719 10720 10723 10729 10734 10738 10740 10742 10742 10744 10746 10746
10691 10689 10692 10689 10689 10684 10678 10676 10673 10671 10667 10663 10659 10653 10646 10638 10629 10623 10622 10619 10620 10623 10626 10629 10632 10637 10643 10647 10652 10661 10670 10676 10683 10693 10703 10704 10711 10715 10716 10719 10724 10728 10730 10734 10734 10735 10738 10739 10740
10682 10681 10681 10679 10680 10677 10671 10667 10665 10664 10660 10656 10651 10647 10641 10633 10625 10620 10619 10617 10618 10620 10623 10627 10631 10636 10640 10645 10651 10658 10666 10673 10680 10690 10699 10702 10705 10708 10712 10716 10721 10723 10725 10727 10727 10728 10731 10733 10734
10674 10671 10672 10670 10671 10669 10664 10660 10659 10657 10655 10650 10645 10640 10633 10628 10622 10617 10615 10613 10614 10618 10620 10624 10629 10630 10636 10641 10648 10657 10663 10670 10676 10684 10691 10696 10699 10702 10706 10711 10715 10716 10718 10719 10719 10722 10723 10725 10726
10666 10664 10662 10663 10661 10660 10656 10652 10652 10651 10648 10642 10639 10635 10628 10623 10618 10613 10610 10610 10610 10611 10615 10619 10625 10626 10631 10638 10645 10654 10657 10666 10672 10678 10685 10689 10692 10696 10701 10702 10706 10707 10708 10710 10711 10714 10716 10716 10718
10656 10656 10655 10656 10653 10652 10648 10645 10644 10642 10640 10636 10633 10629 10624 10618 10612 10608 10605 10604 10606 10607 10609 10613 10617 10621 10623 10632 10640 10648 10654 10661 10669 10675 10679 10683 10687 10689 10693 10696 10699 10700 10701 10702 10705 10707 10707 10709 10709
10647 10648 10647 10648 10648 10646 10642 10637 10637 10635 10633 10629 10627 10623 10618 10613 10607 10601 10600 10599 10600 10601 10602 10606 10610 10615 10619 10624 10633 10642 10649 10656 10664 10670 10675 10678 10680 10683 10685 10689 10691 10694 10695 10696 10699 10700 10701 10702 10702
10636 10640 10639 10637 10641 10641 10638 10629 10632 10629 10627 10624 10620 10618 10613 10608 10600 10595 10594 10594 10593 10595 10596 10601 10604 10610 10614 10618 10626 10636 10642 10650 10656 10662 10666 10669 10674 10676 10680 10683 10685 10687 10688 10690 10691 10693 10692 10692 10694
10629 10632 10629 10627 10633 10634 10632 10624 10623 10623 10621 10617 10613 10610 10607 10600 10593 10588 10587 10587 10587 10587 10590 10593 10598 10604 10608 10614 10620 10628 10636 10643 10650 10655 10658 10661 10665 10670 10673 10676 10678 10680 10682 10683 10684 10683 10682 10682 10683
10617 10621 10620 10618 10625 10628 10624 10619 10617 10616 10614 10610 10606 10603 10600 10592 10586 10582 10580 10578 10577 10578 10581 10586 10591 10597 10603 10608 10614 10620 10628 10635 10641 10647 10651 10655 10659 10662 10665 10667 10670 10672 10673 10673 10672 10673 10672 10672 10671
10606 10609 10608 10610 10616 10621 10618 10612 10610 10610 10608 10605 10600 10597 10593 10584 10580 10576 10573 10571 10571 10572 10575 10579 10584 10591 10596 10601 10607 10613 10619 10626 10631 10637 10642 10647 10651 10654 10657 10659 10661 10662 10662 10664 10664 10663 10662 10661 10660
10593 10598 10594 10605 10609 10611 10609 10605 10603 10605 10603 10599 10595 10592 10586 10580 10575 10571 10569 10567 10567 10568 10569 10573 10577 10584 10589 10594 10599 10606 10610 10617 10624 10628 10633 10638 10641 10643 10647 10649 10650 10652 10653 10654 10654 10653 10651 10651 10647
10583 10581 10590 10597 10600 10601 10603 10599 10595 10597 10597 10594 10591 10587 10582 10577 10572 10568 10566 10565 10564 10563 10564 10567 10572 10578 10583 10588 10593 10597 10602 10609 10615 10620 10624 10628 10632 10635 10639 10640 10641 10642 10643 10644 10642 10641 10640 10636 10635
10569 10576 10580 10587 10590 10595 10592 10597 10587 10591 10590 10589 10587 10584 10579 10575 10570 10566 10565 10563 10562 10561 10562 10565 10569 10572 10576 10582 10588 10592 10596 10601 10605 10610 10614 10618 10623 10626 10628 10629 10630 10630 10630 10629 10629 10626 10624 10622 10620
10557 10563 10568 10574 10579 10590 10578 10590 10578 10585 10584 10584 10582 10579 10576 10572 10567 10563 10562 10561 10560 10559 10560 10562 10566 10569 10573 10576 10581 10586 10590 10595 10600 10605 10607 10610 10613 10615 10617 10618 10618 10616 10618 10615 10615 10613 10610 10610 10610
10547 10548 10555 10564 10570 10578 10575 10583 10573 10577 10575 10577 10577 10575 10572 10569 10565 10561 10558 10557 10557 10557 10558 10560 10563 10567 10571 10574 10578 10582 10587 10590 10593 10597 10600 10603 10603 10605 10605 10607 10606 10605 10604 10602 10599 10600 10598 10600 10598
10529 10535 10547 10552 10560 10566 10570 10577 10565 10570 10568 10570 10571 10570 10568 10565 10563 10559 10556 10554 10553 10553 10555 10557 10559 10562 10564 10569 10573 10576 10579 10582 10585 10587 10589 10591 10591 10593 10594 10596 10593 10591 10591 10589 10589 10589 10587 10585 10582
10519 10527 10525 10538 10549 10555 10562 10565 10557 10558 10561 10563 10564 10564 10564 10562 10561 10558 10555 10551 10550 10549 10550 10552 10555 10557 10560 10562 10565 10568 10572 10575 10576 10577 10578 10580 10581 10583 10584 10584 10581 10579 10581 10579 10579 10578 10575 10572 10569
10504 10509 10513 10527 10537 10542 10550 10553 10548 10549 10555 10552 10555 10559 10559 10558 10557 10556 10553 10550 10548 10546 10545 10546 10549 10552 10554 10556 10558 10561 10564 10565 10568 10568 10570 10570 10572 10574 10574 10573 10568 10572 10572 10570 10568 10566 10564 10562 10558
10485 10496 10501 10510 10521 10528 10536 10542 10537 10541 10546 10543 10548 10551 10553 10554 10553 10552 10550 10549 10547 10544 10542 10543 10544 10545 10546 10548 10550 10552 10554 10556 10558 10559 10560 10561 10563 10564 10563 10563 10561 10560 10558 10558 10558 10556 10554 10551 10548
10469 10480 10485 10496 10508 10515 10522 10530 10528 10531 10535 10535 10539 10542 10545 10547 10547 10547 10546 10545 10543 10541 10541 10540 10539 10538 10539 10541 10542 10544 10546 10547 10548 10548 10549 10550 10551 10553 10553 10554 10552 10550 10549 10549 10546 10544 10542 10540 10535